When you browse on this site, cookies collect data to enhance your experience and personalize the content and advertising you see.
Visit our Privacy Policy to learn more. By continuing to use the site, you agree to this use of cookies and data.
  • In Romania
  • List of Countries
  • For 7 days
  • Water Temperature
  • Weather Map
  • Weather Widgets
  • user-avatar
    Login

    Hourly Weather Sillian

    Today, 12 December, Thursday

    Time Temperature Precipitation Wind Pressure Humidity
    00:00 -7°C° 0 mm 1 mps 617 mmHg 48%
    01:00 -7°C° 0 mm 1 mps 616 mmHg 49%
    02:00 -8°C° 0 mm 1 mps 616 mmHg 50%
    03:00 -8°C° 0 mm 1 mps 615 mmHg 52%
    04:00 -8°C° 0 mm 1 mps 615 mmHg 54%
    05:00 -8°C° 0 mm 1 mps 615 mmHg 58%
    06:00 -9°C° 0 mm 1 mps 615 mmHg 63%
    07:00 -9°C° 0 mm 1 mps 615 mmHg 68%
    08:00 -7°C° 0 mm 1 mps 616 mmHg 71%
    09:00 -6°C° 0 mm 1 mps 616 mmHg 74%
    10:00 -4°C° 0 mm 1 mps 616 mmHg 77%
    11:00 -3°C° 0 mm 1 mps 616 mmHg 76%
    12:00 -2°C° 0 mm 1 mps 616 mmHg 75%
    13:00 -1°C° 0 mm 1 mps 617 mmHg 75%
    14:00 -2°C° 0 mm 1 mps 616 mmHg 78%
    15:00 -3°C° 0 mm 1 mps 616 mmHg 82%
    16:00 -3°C° 0 mm 1 mps 615 mmHg 86%
    17:00 -4°C° 0 mm 1 mps 615 mmHg 88%
    18:00 -6°C° 0 mm 1 mps 615 mmHg 89%
    19:00 -6°C° 0 mm 1 mps 614 mmHg 91%
    20:00 -7°C° 0 mm 0 mps 613 mmHg 91%
    21:00 -8°C° 0 mm 0 mps 613 mmHg 92%
    22:00 -9°C° 0 mm 0 mps 612 mmHg 92%
    23:00 -9°C° 0 mm 1 mps 611 mmHg 93%

    Tomorrow, 13 December, Friday

    Time Temperature Precipitation Wind Pressure Humidity
    00:00 -9°C° 0 mm 1 mps 611 mmHg 94%
    01:00 -9°C° 0 mm 1 mps 610 mmHg 95%
    02:00 -9°C° 0 mm 1 mps 610 mmHg 95%
    03:00 -9°C° 0 mm 1 mps 609 mmHg 95%
    04:00 -9°C° 0 mm 1 mps 608 mmHg 96%
    05:00 -9°C° 0 mm 1 mps 608 mmHg 95%
    06:00 -9°C° 0 mm 1 mps 607 mmHg 95%
    07:00 -10°C° 0 mm 2 mps 606 mmHg 95%
    08:00 -9°C° 0 mm 2 mps 606 mmHg 93%
    09:00 -9°C° 0 mm 2 mps 606 mmHg 91%
    10:00 -8°C° 0 mm 2 mps 606 mmHg 90%
    11:00 -6°C° 0.1 mm 1 mps 606 mmHg 88%
    12:00 -6°C° 0.1 mm 1 mps 606 mmHg 87%
    13:00 -4°C° 0.1 mm 1 mps 606 mmHg 85%
    14:00 -4°C° 0.4 mm 1 mps 606 mmHg 88%
    15:00 -4°C° 0.4 mm 1 mps 606 mmHg 91%
    16:00 -4°C° 0.4 mm 1 mps 606 mmHg 93%
    17:00 -4°C° 0.3 mm 1 mps 606 mmHg 91%
    18:00 -6°C° 0.3 mm 2 mps 607 mmHg 89%
    19:00 -7°C° 0.3 mm 2 mps 607 mmHg 87%
    20:00 -7°C° 0 mm 2 mps 608 mmHg 84%
    21:00 -8°C° 0 mm 3 mps 608 mmHg 80%
    22:00 -8°C° 0 mm 3 mps 609 mmHg 77%
    23:00 -9°C° 0 mm 3 mps 609 mmHg 79%

    Day after tomorrow, 14 December, Saturday

    Time Temperature Precipitation Wind Pressure Humidity
    00:00 -8°C° 0 mm 2 mps 610 mmHg 81%
    01:00 -8°C° 0 mm 2 mps 610 mmHg 82%
    02:00 -9°C° 0 mm 2 mps 611 mmHg 83%
    03:00 -9°C° 0 mm 2 mps 611 mmHg 84%
    04:00 -9°C° 0 mm 2 mps 612 mmHg 84%
    05:00 -10°C° 0 mm 2 mps 612 mmHg 82%
    06:00 -9°C° 0 mm 1 mps 613 mmHg 79%
    07:00 -9°C° 0 mm 1 mps 613 mmHg 76%
    08:00 -7°C° 0 mm 1 mps 614 mmHg 74%
    09:00 -4°C° 0 mm 1 mps 615 mmHg 72%
    10:00 -3°C° 0 mm 1 mps 616 mmHg 70%
    11:00 -1°C° 0 mm 1 mps 617 mmHg 69%
    12:00 0°C° 0 mm 1 mps 618 mmHg 68%
    13:00 +1°C° 0 mm 1 mps 618 mmHg 66%
    14:00 0°C° 0 mm 1 mps 618 mmHg 70%
    15:00 -1°C° 0 mm 1 mps 618 mmHg 73%
    16:00 -3°C° 0 mm 0 mps 618 mmHg 76%
    17:00 -3°C° 0 mm 1 mps 618 mmHg 75%
    18:00 -3°C° 0 mm 1 mps 619 mmHg 73%
    19:00 -3°C° 0 mm 1 mps 619 mmHg 72%
    20:00 -3°C° 0 mm 1 mps 619 mmHg 70%
    21:00 -3°C° 0 mm 1 mps 620 mmHg 68%
    22:00 -3°C° 0 mm 1 mps 620 mmHg 67%
    23:00 -3°C° 0 mm 1 mps 620 mmHg 67%

    15 December, Sunday

    Time Temperature Precipitation Wind Pressure Humidity
    00:00 -3°C° 0 mm 1 mps 620 mmHg 67%
    01:00 -3°C° 0 mm 1 mps 620 mmHg 67%
    02:00 -3°C° 0 mm 1 mps 620 mmHg 68%
    03:00 -4°C° 0 mm 1 mps 620 mmHg 69%
    04:00 -4°C° 0 mm 1 mps 620 mmHg 70%
    05:00 -4°C° 0 mm 1 mps 620 mmHg 71%
    06:00 -4°C° 0 mm 1 mps 620 mmHg 72%
    07:00 -6°C° 0 mm 1 mps 620 mmHg 73%
    08:00 -3°C° 0 mm 1 mps 621 mmHg 72%
    09:00 -2°C° 0 mm 1 mps 622 mmHg 72%
    10:00 -1°C° 0 mm 1 mps 622 mmHg 72%
    11:00 0°C° 0 mm 1 mps 623 mmHg 71%
    12:00 +1°C° 0 mm 1 mps 623 mmHg 71%
    13:00 +2°C° 0 mm 1 mps 623 mmHg 71%
    14:00 0°C° 0 mm 0 mps 623 mmHg 75%
    15:00 -2°C° 0 mm 0 mps 623 mmHg 78%
    16:00 -3°C° 0 mm 0 mps 623 mmHg 82%
    17:00 -3°C° 0 mm 0 mps 623 mmHg 80%
    18:00 -4°C° 0 mm 0 mps 623 mmHg 79%
    19:00 -4°C° 0 mm 0 mps 624 mmHg 78%
    20:00 -5°C° 0 mm 0 mps 624 mmHg 79%
    21:00 -5°C° 0 mm 0 mps 624 mmHg 79%
    22:00 -5°C° 0 mm 0 mps 624 mmHg 80%
    23:00 -5°C° 0 mm 0 mps 624 mmHg 82%

    16 December, Monday

    Time Temperature Precipitation Wind Pressure Humidity
    00:00 -4°C° 0 mm 1 mps 625 mmHg 84%
    01:00 -6°C° 0 mm 1 mps 625 mmHg 86%
    02:00 -6°C° 0 mm 1 mps 624 mmHg 87%
    03:00 -6°C° 0 mm 1 mps 624 mmHg 87%
    04:00 -6°C° 0 mm 1 mps 624 mmHg 88%
    05:00 -6°C° 0 mm 1 mps 624 mmHg 88%
    06:00 -6°C° 0 mm 1 mps 624 mmHg 87%
    07:00 -4°C° 0 mm 1 mps 624 mmHg 87%
    08:00 -3°C° 0 mm 1 mps 625 mmHg 87%
    09:00 -2°C° 0 mm 1 mps 625 mmHg 87%
    10:00 -1°C° 0 mm 1 mps 626 mmHg 87%
    11:00 -2°C° 0 mm 2 mps 626 mmHg 88%
    12:00 -2°C° 0 mm 2 mps 626 mmHg 89%
    13:00 -1°C° 0 mm 2 mps 626 mmHg 91%
    14:00 -1°C° 0 mm 2 mps 625 mmHg 92%
    15:00 -2°C° 0 mm 2 mps 625 mmHg 94%
    16:00 -2°C° 0 mm 2 mps 625 mmHg 96%
    17:00 -2°C° 0 mm 2 mps 625 mmHg 96%
    18:00 -2°C° 0 mm 2 mps 625 mmHg 97%
    19:00 -2°C° 0 mm 2 mps 625 mmHg 97%
    20:00 -2°C° 0 mm 2 mps 625 mmHg 97%
    21:00 -2°C° 0 mm 2 mps 625 mmHg 97%
    22:00 -2°C° 0 mm 2 mps 626 mmHg 97%
    23:00 -2°C° 0 mm 2 mps 625 mmHg 97%

    17 December, Tuesday

    Time Temperature Precipitation Wind Pressure Humidity
    00:00 -2°C° 0 mm 2 mps 625 mmHg 97%
    01:00 -1°C° 0 mm 2 mps 625 mmHg 97%
    02:00 -1°C° 0 mm 2 mps 625 mmHg 97%
    03:00 -1°C° 0 mm 2 mps 625 mmHg 98%
    04:00 -1°C° 0 mm 2 mps 625 mmHg 98%
    05:00 -1°C° 0 mm 2 mps 625 mmHg 98%
    06:00 -1°C° 0 mm 2 mps 625 mmHg 98%
    07:00 +2°C° 0 mm 1 mps 625 mmHg 98%
    08:00 +1°C° 0 mm 2 mps 625 mmHg 98%
    09:00 +1°C° 0 mm 2 mps 625 mmHg 98%
    10:00 +2°C° 0 mm 2 mps 626 mmHg 99%
    11:00 +2°C° 0.1 mm 2 mps 626 mmHg 99%
    12:00 +2°C° 0.1 mm 2 mps 625 mmHg 99%
    13:00 +3°C° 0.1 mm 2 mps 625 mmHg 99%
    14:00 +2°C° 0.1 mm 2 mps 625 mmHg 99%
    15:00 +2°C° 0.1 mm 2 mps 626 mmHg 99%
    16:00 +2°C° 0.1 mm 2 mps 626 mmHg 99%
    17:00 +2°C° 0.2 mm 2 mps 626 mmHg 99%
    18:00 +2°C° 0.2 mm 2 mps 626 mmHg 99%
    19:00 +2°C° 0.2 mm 2 mps 626 mmHg 99%
    20:00 +2°C° 0.6 mm 2 mps 626 mmHg 99%
    21:00 +2°C° 0.6 mm 2 mps 626 mmHg 99%
    22:00 +2°C° 0.6 mm 2 mps 626 mmHg 99%
    23:00 +2°C° 0.8 mm 2 mps 627 mmHg 99%
    Show more